Weather History for Janesville, WI

Change the Weather History Date:

Sunday, November 25, 2012

  Actual Average Record
Temperature  
Mean Temperature 34 °F -  
Max Temperature 42 °F 42 °F 55 °F (2011)
Min Temperature 26 °F 26 °F 6 °F (1989)
Degree Days  
Heating Degree Days 31    
Moisture  
Dew Point 22 °F    
Average Humidity 66    
Maximum Humidity 80    
Minimum Humidity 42    
Precipitation  
Precipitation 0.00 in - - ()
Sea Level Pressure  
Sea Level Pressure 29.92 in    
Wind  
Wind Speed 7 mph (West)    
Max Wind Speed 12 mph    
Max Gust Speed 17 mph    
Visibility 10 miles    
Events      
Averages and records for this station are not official NWS values.
T = Trace of Precipitation, MM = Missing Value Source: NWS Daily Summary

Daily Weather History Graph

Daily Weather History Graph

Search for Another Location

Airport:

Trip Planner

Search our weather history database for the weather conditions in past years. The results will help you decide how hot, cold, wet, or windy it might be!

Date:

Astronomy

Nov. 25, 2012 Rise Set
Actual Time 7:00 AM CST 4:26 PM CST
Civil Twilight 6:29 AM CST 4:57 PM CST
Nautical Twilight 5:54 AM CST 5:31 PM CST
Astronomical Twilight 5:20 AM CST 6:05 PM CST
Moon 2:45 PM CST (11/25) 4:11 AM CST (11/25)
Length of Visible Light 10h 27m
Length of Day
9h 25m
Waxing Gibbous, 93% of the Moon is Illuminated
Nov 25
Waxing Gibbous
Nov 28
Full
Dec 6
Last Quarter
Dec 13
New
Dec 19
First Quarter

Hourly Weather History & Observations

Time (CST) Temp. Windchill Dew Point Humidity Pressure Visibility Wind Dir Wind Speed Gust Speed Precip Events Conditions
12:15 AM 32.0 °F 25.6 °F 21.2 °F 64% 29.91 in 10.0 mi SSW 6.9 mph - N/A   Overcast
12:35 AM 32.0 °F 26.4 °F 21.2 °F 64% 29.89 in 10.0 mi SSW 5.8 mph - N/A   Overcast
12:55 AM 32.0 °F 23.6 °F 21.2 °F 64% 29.88 in 10.0 mi SSW 10.4 mph - N/A   Overcast
1:15 AM 32.0 °F 24.8 °F 21.2 °F 64% 29.86 in 10.0 mi SSW 8.1 mph - N/A   Overcast
1:35 AM 32.0 °F 26.4 °F 21.2 °F 64% 29.86 in 10.0 mi SSW 5.8 mph - N/A   Overcast
1:55 AM 32.0 °F 24.2 °F 21.2 °F 64% 29.85 in 10.0 mi SSW 9.2 mph - N/A   Overcast
2:15 AM 32.0 °F 24.2 °F 21.2 °F 64% 29.85 in 10.0 mi SSW 9.2 mph - N/A   Overcast
2:35 AM 32.0 °F 24.8 °F 21.2 °F 64% 29.85 in 10.0 mi SW 8.1 mph - N/A   Overcast
2:55 AM 32.0 °F 25.6 °F 21.2 °F 64% 29.84 in 10.0 mi SW 6.9 mph - N/A   Overcast
3:15 AM 32.0 °F 25.6 °F 21.2 °F 64% 29.84 in 10.0 mi SW 6.9 mph - N/A   Scattered Clouds
3:35 AM 32.0 °F 25.6 °F 21.2 °F 64% 29.83 in 10.0 mi SW 6.9 mph - N/A   Clear
3:55 AM 32.0 °F 27.5 °F 21.2 °F 64% 29.83 in 10.0 mi SW 4.6 mph - N/A   Clear
4:15 AM 30.2 °F 26.7 °F 21.2 °F 69% 29.83 in 10.0 mi SSW 3.5 mph - N/A   Clear
4:35 AM 30.2 °F - 21.2 °F 69% 29.83 in 10.0 mi Calm Calm - N/A   Clear
5:45 AM 28.4 °F 22.2 °F 19.4 °F 69% 29.83 in 10.0 mi WSW 5.8 mph - N/A   Clear
6:45 AM 26.6 °F - 19.4 °F 74% 29.83 in 10.0 mi Calm Calm - N/A   Clear
7:45 AM 26.6 °F 20.0 °F 19.4 °F 74% 29.85 in 10.0 mi SSW 5.8 mph - N/A   Clear
8:45 AM 32.0 °F 24.2 °F 21.2 °F 64% 29.86 in 10.0 mi WNW 9.2 mph - N/A   Clear
9:45 AM 35.6 °F 27.5 °F 21.2 °F 56% 29.87 in 10.0 mi NW 11.5 mph 17.3 mph N/A   Clear
10:45 AM 37.4 °F 32.8 °F 21.2 °F 52% 29.87 in 10.0 mi NNW 5.8 mph - N/A   Clear
11:45 AM 39.2 °F 32.0 °F 21.2 °F 49% 29.87 in 10.0 mi WNW 11.5 mph - N/A   Clear
12:45 PM 42.8 °F 36.6 °F 21.2 °F 42% 29.87 in 10.0 mi WNW 11.5 mph 17.3 mph N/A   Clear
1:45 PM 41.0 °F 34.3 °F 21.2 °F 45% 29.88 in 10.0 mi WNW 11.5 mph - N/A   Clear
2:45 PM 39.2 °F 33.6 °F 21.2 °F 49% 29.88 in 10.0 mi NW 8.1 mph - N/A   Clear
3:45 PM 37.4 °F 32.8 °F 21.2 °F 52% 29.91 in 10.0 mi WNW 5.8 mph - N/A   Clear
4:45 PM 32.0 °F 26.4 °F 21.2 °F 64% 29.93 in 10.0 mi NW 5.8 mph - N/A   Clear
5:45 PM 28.4 °F 22.2 °F 19.4 °F 69% 29.95 in 10.0 mi West 5.8 mph - N/A   Clear
6:45 PM 28.4 °F 22.2 °F 21.2 °F 74% 29.98 in 10.0 mi WNW 5.8 mph - N/A   Clear
7:45 PM 30.2 °F 24.3 °F 21.2 °F 69% 29.98 in 10.0 mi SW 5.8 mph - N/A   Clear
8:15 PM 30.2 °F - 23.0 °F 75% 30.00 in 10.0 mi Calm Calm - N/A   Clear
8:35 PM 32.0 °F 28.7 °F 23.0 °F 69% 30.01 in 10.0 mi West 3.5 mph - N/A   Clear
8:45 PM 30.2 °F 24.3 °F 23.0 °F 75% 30.01 in 10.0 mi West 5.8 mph - N/A   Clear
8:55 PM 32.0 °F 26.4 °F 23.0 °F 69% 30.02 in 10.0 mi West 5.8 mph - N/A   Clear
9:15 PM 32.0 °F 28.7 °F 23.0 °F 69% 30.02 in 10.0 mi West 3.5 mph - N/A   Clear
9:55 PM 32.0 °F 28.7 °F 23.0 °F 69% 30.04 in 10.0 mi WNW 3.5 mph - N/A   Clear
10:15 PM 30.2 °F 25.4 °F 23.0 °F 75% 30.05 in 10.0 mi WNW 4.6 mph - N/A   Clear
10:35 PM 30.2 °F 23.4 °F 23.0 °F 75% 30.05 in 10.0 mi WNW 6.9 mph - N/A   Clear
10:55 PM 28.4 °F 24.6 °F 23.0 °F 80% 30.06 in 10.0 mi NW 3.5 mph - N/A   Clear
11:15 PM 28.4 °F 24.6 °F 23.0 °F 80% 30.07 in 10.0 mi NW 3.5 mph - N/A   Clear
11:35 PM 28.4 °F 22.2 °F 21.2 °F 74% 30.08 in 10.0 mi NW 5.8 mph - N/A   Clear
11:55 PM 30.2 °F 22.6 °F 23.0 °F 75% 30.09 in 10.0 mi North 8.1 mph - N/A   Clear